Location: Cactus School
(34.5700°N, 118.0931°W)
Time: 05:59:05
(UTC-07:00)

Transit 4A - Pass Details

Date: 17 April 2024
Orbit: 871 x 971 km, 66.8° (Epoch: 22 May)

Event Time Altitude Azimuth Distance (km) Brightness Sun altitude
Rises 14:26:02 0° 225° (SW) 3,554 11.4 58.0°
Reaches altitude 10° 14:28:43 10° 232° (SW) 2,599 11.0 57.6°
Maximum altitude 14:34:22 41° 302° (WNW) 1,274 9.4 56.7°
Drops below altitude 10° 14:39:56 10° 12° (NNE) 2,551 10.1 55.8°
Sets 14:42:33 0° 20° (NNE) 3,483 10.6 55.4°
